Overview Statistics Trail Chart Weather Telemetry Raw packets
 

This is the latest recevied weather packets stored in our database for station/object W5ITZ. If no packets are shown the sender has not sent any weather packets the latest 10 day(s).

<< 105 106 107 108 109 110 111 >>
Time Temp. Humidity Pressure Rain* Wind** Luminosity Snow
1787427515 37.78° C 36% 1016.2 hPa 0 mm - 886 W/m² -
1787427212 37.78° C 37% 1016.2 hPa 0 mm - 909 W/m² -
1787426907 37.22° C 37% 1016.4 hPa 0 mm - 917 W/m² -
1787426607 36.67° C 39% 1016.2 hPa 0 mm - 923 W/m² -
1787426304 36.67° C 39% 1016.3 hPa 0 mm - 931 W/m² -
1787426000 36.67° C 38% 1016.7 hPa 0 mm - 940 W/m² -
1787425696 37.22° C 39% 1016.4 hPa 0 mm - 945 W/m² -
1787425392 36.67° C 37% 1016.5 hPa 0 mm - 948 W/m² -
1787425091 37.22° C 37% 1016.6 hPa 0 mm - 954 W/m² -
1787424786 36.67° C 39% 1016.7 hPa 0 mm - 962 W/m² -
1787424481 36.67° C 41% 1016.7 hPa 0 mm - 960 W/m² -
1787424176 36.67° C 41% 1016.8 hPa 0 mm - 967 W/m² -
1787423872 36.11° C 42% 1016.9 hPa 0 mm - 968 W/m² -
1787423569 36.11° C 42% 1016.8 hPa 0 mm - 974 W/m² -
1787423263 35.56° C 43% 1017.1 hPa 0 mm - 968 W/m² -
1787422959 36.11° C 45% 1017 hPa 0 mm - 960 W/m² -
1787422656 36.11° C 46% 1017.1 hPa 0 mm - 966 W/m² -
1787422352 35.56° C 47% 1017.2 hPa 0 mm - 965 W/m² -
1787422047 35.56° C 48% 1017.2 hPa 0 mm - 962 W/m² -
1787421744 35.56° C 48% 1017 hPa 0 mm - 963 W/m² -
1787421444 35° C 49% 1017.3 hPa 0 mm - 960 W/m² -
1787421139 35° C 50% 1017.3 hPa 0 mm - 962 W/m² -
1787420834 35° C 51% 1017.2 hPa 0 mm - 959 W/m² -
1787420530 35° C 50% 1017.3 hPa 0 mm - 959 W/m² -
1787420265 35° C 51% 1017.6 hPa 0 mm - 959 W/m² -

* Rain latest hour (hover to see other rain measurements)
** Current wind speed in m/s (hover to see current wind gust speed)